Home > Weather > Waterloo > Past weeks

Flag for Canada Past Weather in Waterloo, Ontario, Canada — Yesterday and Last 2 Weeks

Now
75 °F

Passing clouds.


Feels Like: 77 °F
Forecast: 66 / 83 °F
Wind: 7 mph from South

Location: Waterloo Well

Current Time: May 29, 2016 at 9:37:33 AM

Latest Report: May 29, 2016 at 9:00 AM


Visibility: 9 mi

Pressure: 30.07 "Hg

Humidity: 69%

Dew Point: 64 °F

Location of WaterlooLocation

Past Weather in Waterloo — Graph

°F

Waterloo Temperature Yesterday

Maximum temperature yesterday: 86 °F (at 1:00 PM)
Minimum temperature yesterday: 59 °F (at 3:04 AM)
Average temperature yesterday: 74 °F

High & Low Weather Summary for the Past Weeks

 TemperatureHumidityPressure
High86 °F (May 28, 1:00 PM)100% (May 14, 8:51 AM)30.30 "Hg (May 14, 8:51 AM)
Low32 °F (May 16, 1:00 AM)24% (May 24, 5:00 PM)29.48 "Hg (May 14, 10:03 AM)
Average58 °F66%30.03 "Hg
* Reported May 14 8:00 AM — May 29 8:00 AM, Waterloo, Weather by CustomWeather, © 2016

Note: Actual official high and low records may vary slightly from our data, if they occured in-between our weather recording intervals... More about our weather records

Advertising

Waterloo Weather History for the Previous 24 Hours

Scroll right to see more
 ConditionsComfort  
Time TempWeatherWind HumidityBarometerVisibility
8:00 AM
Sun, May 29
72 °FScattered clouds.3 mph78%30.07 "Hg9 mi
7:00 AM66 °FSunny.3 mph88%30.06 "Hg9 mi
6:00 AM64 °FPassing clouds.3 mph88%30.06 "Hg9 mi
5:00 AM66 °FPassing clouds.No wind88%30.05 "Hg9 mi
4:00 AM68 °FPassing clouds.6 mph83%30.06 "Hg9 mi
3:00 AM66 °FPassing clouds.5 mph88%30.06 "Hg9 mi
2:00 AM64 °FPartly cloudy.2 mph94%30.07 "Hg9 mi
1:00 AM70 °FClear.5 mph78%30.06 "Hg9 mi
12:00 AM72 °FClear.9 mph78%30.07 "Hg9 mi
11:00 PM
Sat, May 28
73 °FPassing clouds.6 mph69%30.05 "Hg9 mi
10:00 PM75 °FClear.6 mph69%30.06 "Hg9 mi
9:00 PM79 °FSunny.9 mph58%30.04 "Hg9 mi
8:00 PM81 °FSunny.10 mph54%30.03 "Hg9 mi
7:00 PM84 °FPartly sunny.13 mph48%30.03 "Hg9 mi
6:00 PM82 °FPartly sunny.12 mph51%30.03 "Hg9 mi
5:00 PM82 °FPartly sunny.7 mph62%30.03 "Hg9 mi
4:00 PM82 °FScattered clouds.10 mph62%30.04 "Hg9 mi
3:00 PM84 °FBroken clouds.13 mph45%30.04 "Hg9 mi
2:00 PM86 °FBroken clouds.12 mph40%30.05 "Hg9 mi
1:00 PM86 °FPartly sunny.12 mph46%30.06 "Hg9 mi
12:00 PM84 °FSunny.5 mph55%30.08 "Hg9 mi
11:00 AM82 °FSunny.7 mph55%30.07 "Hg9 mi
10:00 AM81 °FSunny.6 mph62%30.06 "Hg9 mi
9:00 AM75 °FSunny.3 mph69%30.07 "Hg9 mi
Weather by CustomWeather, © 2016

See weather overviewHow to use our weather pages